QPF
0.00 0.00 0.00 0.00 0.00 0.00 0.00 0.00 0.00 0.00 0.00 0.00 0.00 0.00 0.00 0.03 0.14 0.22 0.23 0.25 0.23 0.19 0.04 0.00 0.00 0.00 0.00 0.00 0.00 0.00 0.00 0.00
0.00 0.00 0.00 0.00 0.00 0.00 0.00 0.00 0.00 0.00 0.00 0.00 0.00 0.00 0.00 0.00 0.01 0.05 0.17 0.33 0.52 0.40 0.15 0.02 0.00 0.00 0.00 0.00 0.00 0.00 0.00 0.00
0.00 0.00 0.00 0.00 0.00 0.00 0.00 0.00 0.00 0.00 0.00 0.00 0.00 0.00 0.00 0.00 0.00 0.00 0.04 0.16 0.32 0.39 0.23 0.05 0.01 0.00 0.00 0.00 0.00 0.00 0.00 0.00
0.00 0.00 0.00 0.00 0.00 0.00 0.00 0.00 0.00 0.00 0.00 0.00 0.00 0.00 0.00 0.00 0.00 0.00 0.00 0.04 0.21 0.31 0.24 0.13 0.06 0.03 0.00 0.00 0.00 0.00 0.00 0.00
0.00 0.00 0.00 0.00 0.00 0.00 0.00 0.00 0.00 0.00 0.00 0.00 0.00 0.00 0.00 0.00 0.00 0.00 0.00 0.00 0.08 0.20 0.29 0.20 0.12 0.07 0.01 0.00 0.00 0.00 0.00 0.00
0.00 0.00 0.00 0.00 0.00 0.00 0.00 0.00 0.00 0.00 0.00 0.00 0.00 0.00 0.00 0.00 0.00 0.00 0.00 0.00 0.03 0.11 0.21 0.22 0.17 0.11 0.05 0.01 0.00 0.00 0.00 0.00
0.00 0.00 0.00 0.00 0.00 0.00 0.00 0.00 0.00 0.00 0.00 0.00 0.00 0.00 0.00 0.00 0.00 0.00 0.00 0.00 0.00 0.05 0.15 0.21 0.19 0.16 0.12 0.05 0.02 0.02 0.00 0.00
0.00 0.00 0.00 0.00 0.00 0.00 0.00 0.00 0.00 0.00 0.00 0.00 0.00 0.00 0.00 0.00 0.00 0.00 0.00 0.00 0.00 0.01 0.07 0.16 0.21 0.15 0.09 0.09 0.08 0.04 0.03 0.00
0.00 0.00 0.00 0.00 0.00 0.00 0.00 0.00 0.00 0.00 0.00 0.00 0.00 0.00 0.00 0.00 0.00 0.00 0.00 0.00 0.00 0.00 0.03 0.05 0.07 0.11 0.09 0.10 0.11 0.06 0.04 0.00
0.00 0.00 0.00 0.00 0.00 0.00 0.00 0.00 0.00 0.00 0.00 0.00 0.00 0.00 0.00 0.00 0.00 0.00 0.00 0.00 0.00 0.00 0.01 0.03 0.07 0.10 0.08 0.10 0.13 0.11 0.06 0.02
0.00 0.00 0.00 0.00 0.00 0.00 0.00 0.00 0.00 0.00 0.00 0.00 0.00 0.00 0.00 0.00 0.00 0.00 0.00 0.00 0.00 0.00 0.00 0.01 0.07 0.10 0.13 0.15 0.15 0.16 0.09 0.09
0.00 0.00 0.00 0.00 0.00 0.00 0.00 0.00 0.00 0.00 0.00 0.00 0.00 0.00 0.00 0.00 0.00 0.00 0.00 0.00 0.00 0.00 0.00 0.00 0.06 0.12 0.17 0.14 0.15 0.12 0.13 0.13
0.00 0.00 0.00 0.00 0.00 0.00 0.00 0.00 0.00 0.00 0.00 0.00 0.00 0.00 0.00 0.00 0.00 0.00 0.00 0.00 0.01 0.00 0.00 0.00 0.03 0.07 0.10 0.11 0.10 0.10 0.10 0.10
0.00 0.00 0.00 0.00 0.00 0.00 0.00 0.00 0.00 0.00 0.00 0.00 0.00 0.00 0.00 0.00 0.00 0.00 0.00 0.01 0.01 0.01 0.00 0.00 0.00 0.02 0.04 0.05 0.07 0.06 0.08 0.08
0.00 0.00 0.00 0.00 0.00 0.00 0.00 0.00 0.00 0.00 0.00 0.00 0.00 0.00 0.00 0.00 0.00 0.00 0.00 0.00 0.00 0.00 0.00 0.00 0.00 0.00 0.01 0.04 0.03 0.03 0.03 0.05
0.00 0.00 0.00 0.00 0.00 0.00 0.00 0.00 0.00 0.00 0.00 0.00 0.00 0.00 0.00 0.00 0.00 0.00 0.00 0.00 0.00 0.00 0.00 0.00 0.00 0.00 0.00 0.00 0.01 0.01 0.02 0.02
0.00 0.00 0.00 0.00 0.00 0.00 0.00 0.00 0.00 0.00 0.00 0.00 0.00 0.00 0.00 0.00 0.00 0.00 0.00 0.00 0.00 0.00 0.00 0.00 0.00 0.00 0.00 0.00 0.00 0.00 0.00 0.00
0.00 0.00 0.00 0.00 0.00 0.00 0.00 0.00 0.00 0.00 0.00 0.00 0.00 0.00 0.00 0.00 0.00 0.00 0.00 0.00 0.00 0.00 0.00 0.00 0.00 0.00 0.00 0.00 0.00 0.00 0.00 0.00
0.00 0.00 0.00 0.00 0.00 0.00 0.00 0.00 0.00 0.00 0.00 0.00 0.00 0.00 0.00 0.00 0.00 0.00 0.00 0.00 0.00 0.00 0.00 0.00 0.00 0.00 0.00 0.00 0.00 0.00 0.00 0.00
MSLP
1022.78 1022.54 1022.30 1021.89 1021.46 1020.96 1020.36 1019.59 1018.93 1017.94 1016.85 1016.10 1014.93 1013.69 1012.46 1011.49 1010.01 1008.73 1008.31 1008.19 1008.27 1008.62 1008.98 1009.16 1009.69 1010.32 1010.59 1011.22 1011.73 1012.18 1012.36 1012.53
1023.01 1022.68 1022.26 1021.73 1021.51 1021.07 1020.65 1019.97 1019.25 1018.29 1017.15 1016.23 1015.20 1014.28 1012.69 1011.41 1010.20 1008.57 1007.47 1006.96 1007.18 1007.76 1007.47 1007.97 1008.08 1008.64 1009.08 1009.96 1010.80 1011.26 1011.60 1011.86
1023.63 1023.11 1022.78 1022.45 1022.15 1021.45 1020.63 1020.21 1019.73 1018.87 1017.85 1017.00 1016.15 1014.45 1013.01 1011.83 1010.23 1008.43 1007.16 1006.55 1006.29 1006.35 1006.88 1006.70 1006.82 1006.66 1007.56 1008.20 1009.30 1010.14 1010.60 1010.77
1024.39 1024.01 1023.62 1023.29 1022.86 1022.12 1021.57 1021.16 1020.05 1019.06 1018.21 1017.00 1015.64 1014.18 1012.75 1011.56 1010.14 1008.84 1007.31 1006.39 1005.79 1005.37 1005.35 1006.03 1006.33 1005.57 1006.64 1006.91 1007.14 1008.64 1009.38 1009.87
1025.83 1025.26 1024.44 1023.91 1023.52 1022.84 1022.39 1021.53 1020.51 1019.36 1018.34 1017.18 1016.03 1014.47 1012.78 1011.63 1010.83 1009.17 1008.01 1006.71 1005.33 1004.61 1004.62 1005.11 1004.24 1004.58 1004.96 1006.04 1005.51 1006.55 1008.20 1008.83
1025.92 1025.40 1025.15 1024.72 1023.97 1023.23 1022.57 1021.53 1020.70 1019.63 1018.58 1017.39 1016.04 1014.59 1013.35 1011.64 1010.44 1009.06 1007.65 1006.47 1005.07 1004.00 1004.32 1004.91 1005.23 1003.95 1004.17 1004.79 1004.85 1005.53 1006.66 1007.50
1026.08 1025.86 1025.44 1024.92 1023.91 1022.97 1022.49 1021.53 1020.56 1019.41 1018.36 1017.29 1016.28 1014.87 1013.42 1011.75 1010.43 1009.14 1007.76 1006.30 1004.96 1003.62 1003.86 1004.45 1004.48 1004.47 1001.71 1003.59 1004.33 1004.75 1005.37 1006.49
1026.16 1025.74 1025.51 1025.05 1023.62 1023.29 1022.42 1021.49 1020.21 1019.26 1018.30 1017.46 1016.39 1014.93 1013.67 1012.11 1010.77 1009.49 1008.20 1006.49 1005.14 1003.73 1003.29 1003.42 1003.94 1003.81 1003.94 1004.17 1004.49 1004.08 1004.73 1005.51
1026.50 1026.21 1026.04 1025.20 1023.95 1023.72 1022.82 1021.75 1020.54 1019.62 1018.84 1017.81 1016.69 1015.21 1014.04 1012.58 1011.17 1009.86 1008.25 1006.71 1005.15 1004.15 1003.31 1003.19 1003.44 1003.67 1004.62 1003.91 1003.12 1003.31 1004.03 1004.30
1026.81 1026.54 1026.25 1025.56 1024.66 1024.34 1023.37 1022.14 1021.20 1020.44 1019.47 1018.36 1016.79 1015.36 1014.15 1012.78 1011.47 1009.90 1008.34 1006.99 1005.70 1004.41 1003.19 1002.79 1002.89 1002.87 1002.63 1002.41 1001.49 1002.28 1003.02 1003.34
1027.16 1026.93 1026.55 1025.97 1025.39 1024.76 1023.72 1022.64 1021.93 1020.98 1019.88 1018.61 1017.09 1015.82 1014.44 1012.85 1011.62 1010.42 1008.73 1007.22 1005.71 1004.61 1003.01 1002.19 1001.74 1001.11 1001.00 1002.32 1000.81 1002.01 1002.61 1002.81
1027.41 1027.17 1026.79 1026.45 1025.83 1025.11 1024.05 1022.82 1022.10 1021.08 1020.30 1019.10 1017.78 1016.22 1014.67 1013.19 1012.27 1011.00 1009.00 1007.58 1005.66 1004.98 1003.42 1002.55 1001.89 1000.10 1001.45 1003.84 1002.22 1000.15 1002.01 1002.40
1027.60 1027.36 1027.27 1026.89 1026.00 1025.36 1024.37 1023.26 1022.40 1021.51 1020.47 1019.27 1017.90 1016.76 1015.31 1014.11 1013.04 1012.00 1010.84 1009.23 1007.14 1005.99 1004.44 1003.77 1002.63 1001.71 1001.57 1004.26 1003.63 1002.39 1001.50 1002.00
1027.91 1027.65 1027.66 1027.08 1026.36 1025.63 1024.62 1023.53 1022.53 1021.50 1020.42 1019.37 1018.13 1017.06 1015.90 1014.96 1014.16 1013.27 1012.12 1010.88 1008.77 1007.03 1005.63 1004.36 1004.43 1003.44 1002.87 1004.39 1004.40 1003.00 1002.45 1002.18
1028.25 1028.07 1027.88 1027.23 1026.63 1025.74 1024.75 1023.77 1022.56 1021.57 1020.54 1019.54 1018.57 1017.66 1017.19 1016.37 1015.65 1014.39 1013.50 1012.06 1010.49 1007.72 1006.55 1006.17 1005.51 1005.02 1004.86 1004.04 1004.24 1007.35 1004.45 1002.67
1028.39 1028.43 1028.03 1027.33 1026.66 1025.86 1025.10 1024.11 1022.96 1021.99 1021.13 1020.19 1019.30 1018.52 1018.01 1017.35 1016.38 1015.56 1013.88 1012.93 1011.54 1009.89 1008.33 1007.46 1007.22 1006.32 1006.64 1004.42 1006.26 1010.29 1006.33 1006.14
1028.36 1028.32 1028.21 1027.55 1026.99 1026.35 1025.61 1024.45 1023.50 1022.59 1021.86 1020.96 1020.07 1019.14 1018.25 1017.80 1016.86 1015.95 1014.85 1013.50 1012.23 1011.23 1010.21 1009.30 1007.96 1008.24 1009.06 1007.69 1006.64 1007.29 1010.06 1008.29
1028.56 1028.57 1028.48 1028.03 1027.57 1027.02 1026.22 1025.12 1024.07 1023.11 1022.49 1021.75 1020.76 1019.90 1019.13 1018.18 1017.41 1016.53 1015.46 1014.88 1013.88 1012.90 1012.46 1011.08 1009.27 1008.34 1008.06 1007.87 1008.85 1008.84 1010.58 1009.08
1028.89 1028.95 1028.84 1028.52 1028.19 1027.54 1026.87 1025.94 1024.79 1023.88 1023.07 1022.33 1021.64 1020.84 1020.20 1019.44 1018.51 1018.06 1017.27 1016.53 1015.37 1014.83 1014.72 1013.05 1011.01 1010.12 1008.36 1009.47 1009.97 1010.76 1011.62 1010.13
Thickness
5570 5570 5570 5570 5572 5574 5578 5583 5588 5597 5606 5610 5616 5624 5638 5649 5661 5673 5678 5683 5685 5676 5678 5685 5686 5683 5685 5684 5682 5680 5680 5679
5556 5557 5558 5559 5558 5560 5561 5566 5570 5575 5584 5592 5600 5605 5617 5631 5645 5659 5670 5679 5683 5678 5675 5678 5685 5685 5687 5682 5678 5676 5676 5676
5541 5543 5542 5542 5541 5541 5545 5546 5549 5552 5559 5565 5573 5587 5600 5608 5625 5644 5657 5668 5676 5681 5677 5675 5677 5689 5684 5683 5678 5675 5676 5675
5523 5523 5523 5521 5520 5521 5522 5521 5523 5530 5534 5543 5554 5569 5581 5592 5605 5621 5641 5652 5664 5674 5679 5669 5656 5681 5680 5682 5682 5675 5674 5673
5501 5501 5502 5502 5499 5499 5498 5500 5501 5505 5508 5514 5524 5540 5556 5570 5582 5599 5616 5634 5651 5664 5669 5665 5659 5667 5679 5676 5686 5681 5672 5671
5488 5487 5484 5483 5483 5483 5485 5486 5486 5490 5492 5499 5508 5522 5534 5550 5563 5581 5600 5616 5636 5653 5653 5650 5648 5637 5661 5670 5680 5674 5672 5672
5474 5473 5473 5472 5474 5475 5472 5472 5475 5477 5482 5488 5494 5505 5520 5537 5550 5563 5578 5596 5615 5635 5639 5631 5637 5639 5649 5663 5667 5669 5669 5667
5463 5466 5465 5463 5469 5465 5462 5461 5465 5467 5470 5474 5480 5491 5501 5516 5529 5542 5556 5573 5593 5611 5618 5619 5622 5631 5640 5642 5644 5661 5659 5661
5452 5454 5451 5453 5458 5452 5449 5450 5455 5457 5457 5461 5466 5474 5483 5496 5507 5518 5538 5554 5570 5584 5595 5604 5607 5615 5615 5623 5648 5650 5651 5659
5442 5442 5442 5442 5443 5437 5434 5439 5441 5440 5440 5442 5452 5461 5469 5478 5488 5499 5515 5531 5546 5562 5578 5586 5591 5600 5619 5618 5635 5639 5647 5654
5433 5430 5430 5429 5428 5425 5423 5422 5422 5424 5427 5432 5439 5443 5452 5464 5470 5476 5489 5505 5521 5539 5559 5571 5583 5605 5620 5622 5630 5628 5632 5643
5426 5420 5420 5417 5416 5415 5414 5414 5411 5413 5413 5419 5424 5432 5441 5446 5448 5453 5465 5479 5498 5509 5529 5549 5570 5599 5593 5589 5605 5632 5625 5632
5417 5412 5407 5405 5406 5406 5406 5403 5402 5401 5405 5409 5415 5420 5425 5427 5428 5432 5438 5449 5467 5478 5496 5526 5551 5569 5581 5567 5586 5615 5620 5620
5402 5400 5396 5399 5397 5398 5400 5399 5397 5398 5400 5403 5406 5409 5412 5408 5410 5409 5411 5421 5441 5455 5478 5508 5522 5541 5560 5556 5564 5563 5600 5608
5394 5391 5388 5391 5390 5393 5394 5395 5396 5396 5398 5399 5398 5399 5394 5391 5394 5399 5399 5415 5428 5455 5473 5487 5502 5516 5534 5547 5551 5542 5558 5594
5387 5381 5382 5385 5386 5387 5387 5390 5392 5392 5391 5392 5393 5392 5387 5384 5390 5395 5402 5415 5427 5444 5461 5474 5480 5499 5511 5538 5534 5502 5537 5550
5385 5381 5377 5378 5378 5379 5379 5384 5385 5386 5384 5384 5384 5386 5388 5385 5386 5393 5401 5413 5426 5435 5443 5453 5474 5481 5486 5505 5526 5523 5507 5517
5376 5372 5368 5368 5367 5367 5368 5373 5377 5380 5378 5377 5378 5378 5377 5381 5384 5387 5392 5398 5410 5421 5423 5437 5459 5478 5491 5494 5492 5502 5490 5501
5363 5359 5355 5356 5354 5355 5355 5359 5365 5370 5372 5372 5371 5373 5371 5373 5375 5376 5379 5383 5393 5400 5402 5418 5441 5458 5481 5477 5475 5472 5470 5485